Weather History for Yankton, SD

Change the Weather History Date:

Sunday, November 3, 2013

  Actual Average Record
Temperature  
Mean Temperature 49 °F -  
Max Temperature 59 °F 50 °F 79 °F (1965)
Min Temperature 39 °F 30 °F 5 °F (1991)
Degree Days  
Heating Degree Days 16    
Moisture  
Dew Point 32 °F    
Average Humidity 55    
Maximum Humidity 70    
Minimum Humidity 39    
Precipitation  
Precipitation 0.00 in - - ()
Sea Level Pressure  
Sea Level Pressure 29.76 in    
Wind  
Wind Speed 15 mph (SSE)    
Max Wind Speed 30 mph    
Max Gust Speed 40 mph    
Visibility 10 miles    
Events      
Averages and records for this station are not official NWS values.
T = Trace of Precipitation, MM = Missing Value Source: NWS Daily Summary

Daily Weather History Graph

Daily Weather History Graph

Search for Another Location

Airport:

Trip Planner

Search our weather history database for the weather conditions in past years. The results will help you decide how hot, cold, wet, or windy it might be!

Date:

Astronomy

Nov. 03, 2013 Rise Set
Actual Time 7:06 AM CST 5:18 PM CST
Civil Twilight 6:37 AM CST 5:48 PM CST
Nautical Twilight 6:03 AM CST 6:22 PM CST
Astronomical Twilight 5:30 AM CST 6:55 PM CST
Moon 7:12 AM CST (11/3) 5:33 PM CST (11/3)
Length of Visible Light 11h 11m
Length of Day
10h 12m
New Moon, 0% of the Moon is Illuminated
Nov 3
New Moon
Nov 9
First Quarter
Nov 17
Full
Nov 25
Last Quarter
Dec 2
New

Hourly Weather History & Observations

Time (CST) Temp. Windchill Dew Point Humidity Pressure Visibility Wind Dir Wind Speed Gust Speed Precip Events Conditions
12:15 AM 39.2 °F 35.9 °F 28.4 °F 65% 29.98 in 10.0 mi ESE 4.6 mph - N/A   Clear
12:35 AM 39.2 °F 33.0 °F 28.4 °F 65% 29.97 in 10.0 mi SE 9.2 mph - N/A   Clear
12:55 AM 41.0 °F 34.7 °F 28.4 °F 61% 29.96 in 10.0 mi SE 10.4 mph - N/A   Clear
1:15 AM 39.2 °F 33.0 °F 28.4 °F 65% 29.96 in 10.0 mi SE 9.2 mph - N/A   Clear
1:35 AM 39.2 °F 32.0 °F 28.4 °F 65% 29.96 in 10.0 mi SSE 11.5 mph 16.1 mph N/A   Clear
1:55 AM 39.2 °F 33.0 °F 28.4 °F 65% 29.95 in 10.0 mi SSE 9.2 mph - N/A   Clear
1:15 AM 39.2 °F 32.5 °F 28.4 °F 65% 29.95 in 10.0 mi SSE 10.4 mph - N/A   Clear
1:35 AM 41.0 °F 33.9 °F 28.4 °F 61% 29.94 in 10.0 mi SSE 12.7 mph - N/A   Clear
1:55 AM 39.2 °F 32.0 °F 28.4 °F 65% 29.93 in 10.0 mi SE 11.5 mph - N/A   Clear
2:15 AM 39.2 °F 31.2 °F 28.4 °F 65% 29.92 in 10.0 mi SSE 13.8 mph - N/A   Clear
2:35 AM 39.2 °F 30.8 °F 30.2 °F 70% 29.92 in 10.0 mi SSE 15.0 mph - N/A   Clear
2:55 AM 39.2 °F 31.6 °F 30.2 °F 70% 29.92 in 10.0 mi SSE 12.7 mph - N/A   Clear
3:15 AM 39.2 °F 32.0 °F 28.4 °F 65% 29.91 in 10.0 mi SSE 11.5 mph - N/A   Clear
3:35 AM 39.2 °F 32.5 °F 30.2 °F 70% 29.90 in 10.0 mi SE 10.4 mph - N/A   Clear
3:55 AM 41.0 °F 31.9 °F 28.4 °F 61% 29.88 in 10.0 mi SSE 19.6 mph - N/A   Clear
4:15 AM 42.8 °F 34.8 °F 28.4 °F 57% 29.87 in 10.0 mi SSE 17.3 mph 23.0 mph N/A   Clear
4:35 AM 41.0 °F 32.5 °F 28.4 °F 61% 29.86 in 10.0 mi SSE 17.3 mph 23.0 mph N/A   Clear
4:55 AM 41.0 °F 32.5 °F 28.4 °F 61% 29.85 in 10.0 mi SSE 17.3 mph - N/A   Clear
5:15 AM 41.0 °F 32.5 °F 28.4 °F 61% 29.85 in 10.0 mi SSE 17.3 mph - N/A   Clear
5:35 AM 41.0 °F 32.8 °F 28.4 °F 61% 29.84 in 10.0 mi SE 16.1 mph 26.5 mph N/A   Clear
5:55 AM 39.2 °F 29.8 °F 28.4 °F 65% 29.83 in 10.0 mi SSE 18.4 mph - N/A   Clear
6:15 AM 41.0 °F 31.9 °F 28.4 °F 61% 29.81 in 10.0 mi SSE 19.6 mph - N/A   Clear
6:35 AM 41.0 °F 32.2 °F 28.4 °F 61% 29.81 in 10.0 mi SSE 18.4 mph 26.5 mph N/A   Clear
6:55 AM 41.0 °F 32.2 °F 28.4 °F 61% 29.81 in 10.0 mi SSE 18.4 mph 24.2 mph N/A   Clear
7:15 AM 41.0 °F 31.9 °F 28.4 °F 61% 29.80 in 10.0 mi SSE 19.6 mph 24.2 mph N/A   Clear
7:35 AM 41.0 °F 32.2 °F 30.2 °F 65% 29.81 in 10.0 mi SSE 18.4 mph - N/A   Clear
7:55 AM 41.0 °F 32.5 °F 30.2 °F 65% 29.80 in 10.0 mi SE 17.3 mph - N/A   Clear
8:15 AM 42.8 °F 35.4 °F 30.2 °F 61% 29.80 in 10.0 mi SE 15.0 mph 24.2 mph N/A   Clear
8:35 AM 44.6 °F 36.9 °F 30.2 °F 57% 29.80 in 10.0 mi SSE 18.4 mph 23.0 mph N/A   Clear
8:55 AM 44.6 °F 36.6 °F 30.2 °F 57% 29.79 in 10.0 mi SSE 19.6 mph 24.2 mph N/A   Clear
9:15 AM 46.4 °F 39.5 °F 30.2 °F 53% 29.79 in 10.0 mi SSE 17.3 mph - N/A   Clear
9:35 AM 46.4 °F 38.5 °F 30.2 °F 53% 29.77 in 10.0 mi SSE 21.9 mph - N/A   Clear
9:55 AM 48.2 °F - 30.2 °F 50% 29.75 in 10.0 mi SSE 19.6 mph 29.9 mph N/A   Clear
10:15 AM 48.2 °F - 32.0 °F 54% 29.75 in 10.0 mi SSE 20.7 mph 33.4 mph N/A   Clear
10:35 AM 50.0 °F - 32.0 °F 50% 29.74 in 10.0 mi SSE 23.0 mph 29.9 mph N/A   Clear
10:55 AM 51.8 °F - 32.0 °F 47% 29.72 in 10.0 mi SSE 18.4 mph 26.5 mph N/A   Clear
11:15 AM 53.6 °F - 32.0 °F 44% 29.71 in 10.0 mi SSE 20.7 mph 26.5 mph N/A   Clear
11:35 AM 53.6 °F - 33.8 °F 47% 29.71 in 10.0 mi South 23.0 mph 35.7 mph N/A   Clear
11:55 AM 55.4 °F - 32.0 °F 41% 29.70 in 10.0 mi South 29.9 mph 40.3 mph N/A   Clear
12:15 PM 55.4 °F - 33.8 °F 44% 29.69 in 10.0 mi South 25.3 mph 36.8 mph N/A   Clear
12:35 PM 55.4 °F - 33.8 °F 44% 29.68 in 10.0 mi South 23.0 mph 35.7 mph N/A   Clear
12:55 PM 55.4 °F - 33.8 °F 44% 29.68 in 10.0 mi South 24.2 mph 31.1 mph N/A   Clear
1:15 PM 55.4 °F - 33.8 °F 44% 29.68 in 10.0 mi SSE 21.9 mph 33.4 mph N/A   Clear
1:35 PM 55.4 °F - 33.8 °F 44% 29.66 in 10.0 mi SSE 24.2 mph 31.1 mph N/A   Clear
1:55 PM 55.4 °F - 33.8 °F 44% 29.65 in 10.0 mi SSE 24.2 mph 35.7 mph N/A   Clear
2:15 PM 57.2 °F - 35.6 °F 44% 29.63 in 10.0 mi SSE 27.6 mph 34.5 mph N/A   Clear
2:35 PM 57.2 °F - 33.8 °F 41% 29.63 in 10.0 mi SSE 21.9 mph 31.1 mph N/A   Clear
2:55 PM 57.2 °F - 35.6 °F 44% 29.62 in 10.0 mi SSE 21.9 mph 29.9 mph N/A   Clear
3:15 PM 57.2 °F - 35.6 °F 44% 29.62 in 10.0 mi SSE 18.4 mph 31.1 mph N/A   Clear
3:35 PM 59.0 °F - 33.8 °F 39% 29.62 in 10.0 mi South 25.3 mph 33.4 mph N/A   Clear
3:55 PM 59.0 °F - 35.6 °F 42% 29.62 in 10.0 mi South 24.2 mph 32.2 mph N/A   Clear
4:15 PM 59.0 °F - 35.6 °F 42% 29.62 in 10.0 mi SSE 23.0 mph 31.1 mph N/A   Clear
4:35 PM 57.2 °F - 35.6 °F 44% 29.60 in 10.0 mi SSE 25.3 mph 36.8 mph N/A   Clear
4:55 PM 57.2 °F - 33.8 °F 41% 29.63 in 10.0 mi South 25.3 mph 31.1 mph N/A   Clear
5:15 PM 55.4 °F - 35.6 °F 47% 29.64 in 10.0 mi South 16.1 mph 24.2 mph N/A   Clear
5:35 PM 55.4 °F - 35.6 °F 47% 29.65 in 10.0 mi SSE 12.7 mph 18.4 mph N/A   Clear
5:55 PM 53.6 °F - 35.6 °F 51% 29.65 in 10.0 mi SE 12.7 mph - N/A   Clear
6:15 PM 53.6 °F - 35.6 °F 51% 29.65 in 10.0 mi SSE 17.3 mph 20.7 mph N/A   Clear
6:35 PM 51.8 °F - 35.6 °F 54% 29.65 in 10.0 mi SSE 16.1 mph - N/A   Clear
6:55 PM 51.8 °F - 35.6 °F 54% 29.66 in 10.0 mi SE 9.2 mph 18.4 mph N/A   Clear
7:15 PM 51.8 °F - 35.6 °F 54% 29.66 in 10.0 mi SE 12.7 mph 17.3 mph N/A   Clear
7:35 PM 51.8 °F - 35.6 °F 54% 29.67 in 10.0 mi SE 12.7 mph - N/A   Clear
7:55 PM 51.8 °F - 35.6 °F 54% 29.67 in 10.0 mi SE 11.5 mph 16.1 mph N/A   Clear
8:15 PM 51.8 °F - 35.6 °F 54% 29.67 in 10.0 mi SSE 11.5 mph - N/A   Clear
8:35 PM 51.8 °F - 35.6 °F 54% 29.68 in 10.0 mi SSE 10.4 mph - N/A   Clear
8:55 PM 48.2 °F - 35.6 °F 62% 29.68 in 10.0 mi SE 9.2 mph - N/A   Clear
9:15 PM 50.0 °F - 35.6 °F 58% 29.69 in 10.0 mi SE 10.4 mph 21.9 mph N/A   Clear
9:35 PM 48.2 °F - 35.6 °F 62% 29.69 in 10.0 mi SSE 9.2 mph - N/A   Clear
9:55 PM 48.2 °F - 35.6 °F 62% 29.70 in 10.0 mi SSE 11.5 mph - N/A   Clear
10:15 PM 48.2 °F - 35.6 °F 62% 29.70 in 10.0 mi SSE 11.5 mph - N/A   Clear
10:35 PM 48.2 °F - 35.6 °F 62% 29.70 in 10.0 mi SSE 12.7 mph - N/A   Clear
10:55 PM 46.4 °F 41.1 °F 35.6 °F 66% 29.70 in 10.0 mi SSE 11.5 mph - N/A   Clear